[Date Prev][Date Next][Thread Prev][Thread Next] - [Date Index][Thread Index][Author Index]

Updated MIR Keps 2-2



MIR
1 16609U 86017A   99033.62215070 -.00705684  00000-0 -60986-2 0  1783
2 16609  51.6621 313.1101 0015148  80.9915 279.1017 15.70324883740230

----
Via the sarex mailing list at AMSAT.ORG courtesy of AMSAT-NA.
To unsubscribe, send "unsubscribe sarex" to Majordomo@amsat.org



AMSAT Top AMSAT Home